• In Uzbekistan
  • List of Countries
  • For 7 days
  • Water Temperature
  • Satellite Maps
  • Weather Map
  • Weather Widgets
  • user-avatar
    Login

    Hourly Weather Poti

    Today, 17 October, Wednesday

    Time Temperature Precipitation Wind Pressure Humidity
    00:00 +20°C° 0 mm 3 mps 765 mmHg 56%
    01:00 +20°C° 0 mm 3 mps 765 mmHg 55%
    02:00 +20°C° 0 mm 3 mps 765 mmHg 54%
    03:00 +21°C° 0 mm 3 mps 765 mmHg 51%
    04:00 +20°C° 0 mm 3 mps 765 mmHg 52%
    05:00 +20°C° 0 mm 3 mps 765 mmHg 52%
    06:00 +20°C° 0 mm 3 mps 765 mmHg 53%
    07:00 +22°C° 0 mm 3 mps 765 mmHg 50%
    08:00 +24°C° 0 mm 3 mps 765 mmHg 48%
    09:00 +26°C° 0 mm 3 mps 765 mmHg 45%
    10:00 +28°C° 0 mm 2 mps 764 mmHg 42%
    11:00 +29°C° 0 mm 2 mps 764 mmHg 38%
    12:00 +31°C° 0 mm 2 mps 764 mmHg 34%
    13:00 +31°C° 0 mm 2 mps 763 mmHg 35%
    14:00 +31°C° 0 mm 2 mps 763 mmHg 36%
    15:00 +31°C° 0 mm 1 mps 763 mmHg 36%
    16:00 +28°C° 0 mm 2 mps 763 mmHg 42%
    17:00 +26°C° 0 mm 2 mps 763 mmHg 48%
    18:00 +24°C° 0 mm 2 mps 763 mmHg 54%
    19:00 +23°C° 0 mm 2 mps 763 mmHg 55%
    20:00 +23°C° 0 mm 2 mps 764 mmHg 55%
    21:00 +21°C° 0 mm 2 mps 764 mmHg 55%
    22:00 +21°C° 0 mm 2 mps 764 mmHg 53%
    23:00 +20°C° 0 mm 2 mps 764 mmHg 52%

    Tomorrow, 18 October, Thursday

    Time Temperature Precipitation Wind Pressure Humidity
    00:00 +20°C° 0 mm 3 mps 764 mmHg 50%
    01:00 +20°C° 0 mm 3 mps 764 mmHg 48%
    02:00 +20°C° 0 mm 3 mps 764 mmHg 47%
    03:00 +20°C° 0 mm 3 mps 763 mmHg 45%
    04:00 +19°C° 0 mm 3 mps 763 mmHg 45%
    05:00 +19°C° 0 mm 3 mps 763 mmHg 44%
    06:00 +19°C° 0 mm 3 mps 763 mmHg 43%
    07:00 +21°C° 0 mm 3 mps 763 mmHg 42%
    08:00 +24°C° 0 mm 3 mps 763 mmHg 41%
    09:00 +26°C° 0 mm 3 mps 763 mmHg 40%
    10:00 +28°C° 0 mm 3 mps 762 mmHg 36%
    11:00 +29°C° 0 mm 2 mps 762 mmHg 31%
    12:00 +31°C° 0 mm 2 mps 762 mmHg 27%
    13:00 +31°C° 0 mm 2 mps 762 mmHg 28%
    14:00 +31°C° 0 mm 2 mps 761 mmHg 29%
    15:00 +31°C° 0 mm 1 mps 761 mmHg 30%
    16:00 +29°C° 0 mm 2 mps 761 mmHg 35%
    17:00 +26°C° 0 mm 2 mps 761 mmHg 40%
    18:00 +24°C° 0 mm 2 mps 761 mmHg 44%
    19:00 +22°C° 0 mm 3 mps 762 mmHg 45%
    20:00 +22°C° 0 mm 3 mps 762 mmHg 45%
    21:00 +21°C° 0 mm 3 mps 762 mmHg 46%
    22:00 +21°C° 0 mm 3 mps 762 mmHg 44%
    23:00 +21°C° 0 mm 4 mps 762 mmHg 42%

    Day after tomorrow, 19 October, Friday

    Time Temperature Precipitation Wind Pressure Humidity
    00:00 +21°C° 0 mm 4 mps 762 mmHg 41%
    01:00 +20°C° 0 mm 4 mps 762 mmHg 39%
    02:00 +20°C° 0 mm 5 mps 762 mmHg 38%
    03:00 +20°C° 0 mm 5 mps 762 mmHg 37%
    04:00 +20°C° 0 mm 5 mps 762 mmHg 36%
    05:00 +20°C° 0 mm 5 mps 762 mmHg 36%
    06:00 +20°C° 0 mm 5 mps 762 mmHg 36%
    07:00 +22°C° 0 mm 5 mps 762 mmHg 36%
    08:00 +23°C° 0 mm 5 mps 762 mmHg 36%
    09:00 +26°C° 0 mm 5 mps 762 mmHg 36%
    10:00 +28°C° 0 mm 4 mps 762 mmHg 34%
    11:00 +29°C° 0 mm 4 mps 762 mmHg 31%
    12:00 +32°C° 0 mm 4 mps 761 mmHg 28%
    13:00 +31°C° 0 mm 3 mps 761 mmHg 29%
    14:00 +31°C° 0 mm 3 mps 761 mmHg 31%
    15:00 +31°C° 0 mm 2 mps 761 mmHg 32%
    16:00 +28°C° 0 mm 2 mps 761 mmHg 38%
    17:00 +26°C° 0 mm 2 mps 761 mmHg 43%
    18:00 +24°C° 0 mm 2 mps 761 mmHg 49%
    19:00 +23°C° 0 mm 2 mps 761 mmHg 49%
    20:00 +23°C° 0 mm 2 mps 762 mmHg 49%
    21:00 +21°C° 0 mm 2 mps 762 mmHg 49%
    22:00 +21°C° 0 mm 2 mps 762 mmHg 47%
    23:00 +21°C° 0 mm 3 mps 762 mmHg 46%

    20 October, Saturday

    Time Temperature Precipitation Wind Pressure Humidity
    00:00 +20°C° 0 mm 3 mps 762 mmHg 44%
    01:00 +20°C° 0 mm 3 mps 762 mmHg 43%
    02:00 +20°C° 0 mm 3 mps 762 mmHg 42%
    03:00 +20°C° 0 mm 3 mps 762 mmHg 41%
    04:00 +20°C° 0 mm 3 mps 762 mmHg 40%
    05:00 +19°C° 0 mm 3 mps 762 mmHg 39%
    06:00 +19°C° 0 mm 3 mps 762 mmHg 38%
    07:00 +21°C° 0 mm 3 mps 762 mmHg 38%
    08:00 +24°C° 0 mm 2 mps 762 mmHg 38%
    09:00 +25°C° 0 mm 2 mps 762 mmHg 37%
    10:00 +27°C° 0 mm 2 mps 762 mmHg 36%
    11:00 +28°C° 0 mm 2 mps 762 mmHg 34%
    12:00 +29°C° 0 mm 2 mps 761 mmHg 33%
    13:00 +29°C° 0 mm 2 mps 761 mmHg 36%
    14:00 +28°C° 0 mm 2 mps 761 mmHg 39%
    15:00 +28°C° 0 mm 2 mps 761 mmHg 42%
    16:00 +26°C° 0 mm 2 mps 761 mmHg 52%
    17:00 +24°C° 0 mm 2 mps 761 mmHg 62%
    18:00 +21°C° 0 mm 2 mps 762 mmHg 72%
    19:00 +20°C° 0 mm 2 mps 762 mmHg 73%
    20:00 +20°C° 0 mm 2 mps 762 mmHg 75%
    21:00 +21°C° 0 mm 1 mps 762 mmHg 76%
    22:00 +21°C° 0 mm 1 mps 762 mmHg 74%
    23:00 +20°C° 0 mm 1 mps 762 mmHg 72%

    21 October, Sunday

    Time Temperature Precipitation Wind Pressure Humidity
    00:00 +20°C° 0 mm 1 mps 761 mmHg 71%
    01:00 +20°C° 0 mm 1 mps 761 mmHg 69%
    02:00 +20°C° 0 mm 1 mps 761 mmHg 67%
    03:00 +20°C° 0 mm 1 mps 761 mmHg 66%
    04:00 +20°C° 0 mm 1 mps 761 mmHg 64%
    05:00 +20°C° 0 mm 1 mps 761 mmHg 62%
    06:00 +20°C° 0 mm 1 mps 761 mmHg 60%
    07:00 +21°C° 0 mm 1 mps 761 mmHg 57%
    08:00 +22°C° 0 mm 1 mps 761 mmHg 53%
    09:00 +24°C° 0 mm 1 mps 760 mmHg 50%
    10:00 +25°C° 0 mm 1 mps 760 mmHg 46%
    11:00 +27°C° 0 mm 1 mps 760 mmHg 42%
    12:00 +28°C° 0 mm 1 mps 759 mmHg 39%
    13:00 +28°C° 0 mm 2 mps 759 mmHg 42%
    14:00 +27°C° 0 mm 2 mps 759 mmHg 45%
    15:00 +27°C° 0 mm 2 mps 759 mmHg 47%
    16:00 +25°C° 0 mm 2 mps 759 mmHg 55%
    17:00 +23°C° 0 mm 2 mps 759 mmHg 63%
    18:00 +21°C° 0 mm 1 mps 759 mmHg 70%
    19:00 +21°C° 0 mm 1 mps 759 mmHg 70%
    20:00 +21°C° 0 mm 1 mps 759 mmHg 70%
    21:00 +21°C° 0 mm 1 mps 759 mmHg 70%
    22:00 +20°C° 0 mm 1 mps 759 mmHg 69%
    23:00 +19°C° 0 mm 2 mps 759 mmHg 68%

    22 October, Monday

    Time Temperature Precipitation Wind Pressure Humidity
    00:00 +19°C° 0 mm 2 mps 759 mmHg 67%
    01:00 +19°C° 0 mm 2 mps 759 mmHg 65%
    02:00 +19°C° 0 mm 2 mps 759 mmHg 63%
    03:00 +19°C° 0 mm 3 mps 759 mmHg 62%
    04:00 +19°C° 0 mm 2 mps 759 mmHg 61%
    05:00 +19°C° 0 mm 2 mps 759 mmHg 59%
    06:00 +19°C° 0 mm 2 mps 759 mmHg 58%
    07:00 +20°C° 0 mm 2 mps 760 mmHg 56%
    08:00 +23°C° 0 mm 2 mps 760 mmHg 54%
    09:00 +24°C° 0 mm 2 mps 760 mmHg 52%
    10:00 +26°C° 0 mm 2 mps 760 mmHg 47%
    11:00 +27°C° 0 mm 2 mps 760 mmHg 42%
    12:00 +29°C° 0 mm 2 mps 760 mmHg 37%
    13:00 +29°C° 0.1 mm 2 mps 760 mmHg 38%
    14:00 +29°C° 0.1 mm 2 mps 760 mmHg 39%
    15:00 +29°C° 0.1 mm 2 mps 760 mmHg 40%
    16:00 +27°C° 0 mm 2 mps 760 mmHg 45%
    17:00 +25°C° 0 mm 2 mps 761 mmHg 51%
    18:00 +23°C° 0 mm 2 mps 761 mmHg 56%
    19:00 +21°C° 0 mm 2 mps 762 mmHg 57%
    20:00 +21°C° 0 mm 2 mps 762 mmHg 58%
    21:00 +20°C° 0 mm 2 mps 762 mmHg 59%
    22:00 +20°C° 0 mm 2 mps 762 mmHg 59%
    23:00 +20°C° 0 mm 2 mps 763 mmHg 59%
    Show more